#�ϑ�����,���ϕ���,���ϕ���,�ő啗��,�ő啗����������,�ő�u�ԕ���,�ő�u�ԕ�����������
#(�N����),(m/s)   ,(16����),(m/s)   ,(16����)        ,(m/s)       ,(16����)            
2016/3/15 0:01,2.1,12,2.1,11,3,12
2016/3/15 0:02,2.1,12,2.1,12,2.2,10
2016/3/15 0:03,2,12,2.1,12,3,16
2016/3/15 0:04,2.1,12,2.1,12,4.2,16
2016/3/15 0:05,2.1,13,2.1,12,4.7,16
2016/3/15 0:06,2.3,14,2.3,14,8.1,15
2016/3/15 0:07,2.7,14,2.7,14,9.3,16
2016/3/15 0:08,3.1,15,3.1,15,6.5,15
2016/3/15 0:09,3.1,15,3.1,15,6.9,16
2016/3/15 0:10,3.1,15,3.1,15,6.1,15
2016/3/15 0:11,3.3,15,3.3,15,5.8,16
2016/3/15 0:12,3.6,15,3.6,15,7.8,15
2016/3/15 0:13,4.1,15,4.1,15,8.9,16
2016/3/15 0:14,4.3,15,4.3,15,7.9,15
2016/3/15 0:15,4.4,15,4.4,15,6.5,13
2016/3/15 0:16,4.3,15,4.5,15,4.8,13
2016/3/15 0:17,3.9,15,4.2,15,4.9,13
2016/3/15 0:18,4,14,4,15,7.6,15
2016/3/15 0:19,4.2,14,4.2,15,10,16
2016/3/15 0:20,4.3,15,4.3,15,9,15
2016/3/15 0:21,4.4,15,4.5,15,9.2,15
2016/3/15 0:22,4.2,14,4.4,15,6,12
2016/3/15 0:23,4.1,14,4.2,15,8.6,15
2016/3/15 0:24,4,14,4.1,15,6.1,15
2016/3/15 0:25,3.9,14,3.9,15,7.6,16
2016/3/15 0:26,3.8,14,3.9,15,5,13
2016/3/15 0:27,3.9,14,3.9,15,5.1,14
2016/3/15 0:28,3.6,14,3.9,15,4.2,16
2016/3/15 0:29,3.5,14,3.6,15,10.2,14
2016/3/15 0:30,3.4,14,3.5,15,9.1,13
2016/3/15 0:31,3.5,14,3.5,15,6.4,16
2016/3/15 0:32,3.5,14,3.6,14,6.2,14
2016/3/15 0:33,3.3,14,3.4,14,7.2,15
2016/3/15 0:34,3.3,14,3.3,14,5.6,15
2016/3/15 0:35,3.3,14,3.4,14,6.5,15
2016/3/15 0:36,3.5,15,3.5,14,9.1,15
2016/3/15 0:37,3.5,15,3.5,14,5.4,16
2016/3/15 0:38,3.5,15,3.6,14,3.8,15
2016/3/15 0:39,3.5,15,3.5,14,7.6,16
2016/3/15 0:40,3.7,15,3.7,15,8.7,14
2016/3/15 0:41,3.5,15,3.7,15,6.8,1
2016/3/15 0:42,3.9,15,3.9,15,10.6,15
2016/3/15 0:43,4.2,15,4.2,15,10.5,16
2016/3/15 0:44,4.6,15,4.6,15,12.1,1
2016/3/15 0:45,4.8,16,4.8,16,9.3,15
2016/3/15 0:46,4.8,16,4.8,16,7,15
2016/3/15 0:47,4.9,16,4.9,16,10,15
2016/3/15 0:48,5.2,15,5.2,16,8.3,14
2016/3/15 0:49,5.2,15,5.3,15,10.2,13
2016/3/15 0:50,5,15,5.2,15,6.1,15
2016/3/15 0:51,5,15,5,15,6.5,16
2016/3/15 0:52,4.6,15,5,15,5.1,16
2016/3/15 0:53,4.3,15,4.5,15,5.6,16
2016/3/15 0:54,3.8,15,4.2,15,4.9,15
2016/3/15 0:55,3.5,15,3.8,15,4.4,14
2016/3/15 0:56,3.6,15,3.6,15,6.7,16
2016/3/15 0:57,3.6,15,3.6,15,7.5,15
2016/3/15 0:58,3.5,15,3.6,15,7.5,16
2016/3/15 0:59,3.7,15,3.7,15,12.1,16
2016/3/15 1:00,3.8,16,3.8,15,8.3,15
2016/3/15 1:01,3.8,16,3.9,15,7.9,16
2016/3/15 1:02,4,16,4,15,7.6,16
2016/3/15 1:03,4.1,16,4.1,15,10,14
2016/3/15 1:04,4.3,16,4.3,16,7,15
2016/3/15 1:05,4.2,16,4.3,16,4.8,1
2016/3/15 1:06,4.1,16,4.2,16,6.3,2
2016/3/15 1:07,4.2,16,4.2,16,10,15
2016/3/15 1:08,4.2,16,4.2,16,5.4,1
2016/3/15 1:09,4,16,4.2,16,7.5,1
2016/3/15 1:10,4.1,16,4.1,16,7.6,16
2016/3/15 1:11,3.9,16,4.1,16,7.2,16
2016/3/15 1:12,3.9,16,4,16,6.2,16
2016/3/15 1:13,3.7,16,3.9,16,2.9,16
2016/3/15 1:14,3.6,16,3.7,16,3.9,16
2016/3/15 1:15,3.9,16,3.9,16,9.3,16
2016/3/15 1:16,4.1,16,4.1,16,8.9,16
2016/3/15 1:17,3.7,16,4,16,5.2,16
2016/3/15 1:18,3.5,16,3.7,16,4.2,15
2016/3/15 1:19,3.2,16,3.5,16,1.8,5
2016/3/15 1:20,2.8,16,3.2,16,2.7,15
2016/3/15 1:21,2.6,16,2.7,16,2.6,1
2016/3/15 1:22,2.5,16,2.6,16,4.5,13
2016/3/15 1:23,2.5,16,2.5,16,5.2,16
2016/3/15 1:24,2.7,16,2.7,16,5.1,15
2016/3/15 1:25,2.6,16,2.8,16,9.5,15
2016/3/15 1:26,2.9,16,2.9,16,10.5,16
2016/3/15 1:27,3,16,3,16,5.7,1
2016/3/15 1:28,3,16,3,16,3.7,16
2016/3/15 1:29,3.1,16,3.1,16,4.4,15
2016/3/15 1:30,3.4,15,3.4,16,6,14
2016/3/15 1:31,3.7,15,3.7,15,5.8,1
2016/3/15 1:32,4.1,16,4.1,16,12.7,15
2016/3/15 1:33,4.3,16,4.3,16,8.3,15
2016/3/15 1:34,4.4,16,4.4,16,7,15
2016/3/15 1:35,4.5,16,4.5,16,9.3,15
2016/3/15 1:36,4.3,16,4.5,16,7.6,15
2016/3/15 1:37,4.4,16,4.4,16,8.1,16
2016/3/15 1:38,4.7,16,4.7,16,12.3,16
2016/3/15 1:39,5.1,16,5.1,16,11.1,2
2016/3/15 1:40,5.1,16,5.1,16,6.8,16
2016/3/15 1:41,5,16,5.1,16,5.7,16
2016/3/15 1:42,4.9,16,5,16,7.6,15
2016/3/15 1:43,5,16,5,16,9.7,16
2016/3/15 1:44,5.2,16,5.2,16,10.1,15
2016/3/15 1:45,5,16,5.2,16,7.7,1
2016/3/15 1:46,4.9,16,5,16,7.5,16
2016/3/15 1:47,5,16,5,16,8.4,1
2016/3/15 1:48,5,16,5.1,16,7.7,1
2016/3/15 1:49,5,16,5.1,16,9.4,16
2016/3/15 1:50,5,16,5,16,5.8,15
2016/3/15 1:51,5.5,16,5.5,16,12.5,16
2016/3/15 1:52,5.8,16,5.8,16,12.4,16
2016/3/15 1:53,5.8,16,5.8,16,9.9,15
2016/3/15 1:54,5.6,16,5.8,16,7.8,16
2016/3/15 1:55,5.8,16,5.8,16,9.7,15
2016/3/15 1:56,6.1,15,6.1,15,12.5,15
2016/3/15 1:57,6,16,6.1,15,10.2,1
2016/3/15 1:58,6.1,16,6.1,15,8.2,16
2016/3/15 1:59,6.1,15,6.1,15,9.7,14
2016/3/15 2:00,6.3,16,6.3,16,10,16
2016/3/15 2:01,6.1,16,6.3,16,11.9,15
2016/3/15 2:02,6,16,6.1,16,12.5,14
2016/3/15 2:03,6,16,6.1,16,9.7,16
2016/3/15 2:04,6.3,16,6.3,16,12.8,2
2016/3/15 2:05,6,16,6.3,16,8.9,1
2016/3/15 2:06,5.5,16,5.9,16,5.2,1
2016/3/15 2:07,5.4,16,5.4,16,7.1,16
2016/3/15 2:08,5.1,16,5.4,16,8.2,16
2016/3/15 2:09,5.1,16,5.1,16,9,16
2016/3/15 2:10,5,16,5.2,16,8.3,16
2016/3/15 2:11,4.8,16,5,16,9.1,16
2016/3/15 2:12,4.7,16,4.8,16,8.6,16
2016/3/15 2:13,4.5,16,4.7,16,7.8,14
2016/3/15 2:14,4.4,16,4.5,16,10.2,15
2016/3/15 2:15,4.7,15,4.7,16,10.8,15
2016/3/15 2:16,5,15,5,16,8.3,15
2016/3/15 2:17,5,15,5.1,16,7.9,15
2016/3/15 2:18,5.1,15,5.1,16,5.1,14
2016/3/15 2:19,4.8,15,5,16,4.7,1
2016/3/15 2:20,4.7,15,4.7,15,9.2,16
2016/3/15 2:21,4.7,15,4.8,15,6.4,15
2016/3/15 2:22,4.7,15,4.8,15,8.5,16
2016/3/15 2:23,4.7,15,4.8,15,8.5,16
2016/3/15 2:24,4.4,15,4.7,15,5.8,16
2016/3/15 2:25,4,15,4.3,15,4.8,15
2016/3/15 2:26,3.8,15,4,15,6.1,15
2016/3/15 2:27,3.9,15,3.9,15,9.1,1
2016/3/15 2:28,3.9,15,3.9,15,7.9,16
2016/3/15 2:29,4,15,4,15,5.2,15
2016/3/15 2:30,3.7,15,4,15,5.5,14
2016/3/15 2:31,3.8,16,3.8,15,7.9,16
2016/3/15 2:32,3.6,15,3.8,15,6,16
2016/3/15 2:33,3.6,15,3.6,15,9.1,15
2016/3/15 2:34,3.8,15,3.8,15,9.9,16
2016/3/15 2:35,4.3,15,4.3,15,9.4,16
2016/3/15 2:36,4.6,15,4.6,15,8.9,16
2016/3/15 2:37,4.5,15,4.6,15,8.3,1
2016/3/15 2:38,4.3,15,4.4,15,3.5,13
2016/3/15 2:39,4.3,15,4.3,15,4.5,1
2016/3/15 2:40,4.5,15,4.5,15,6.8,16
2016/3/15 2:41,4.1,15,4.5,15,6.5,15
2016/3/15 2:42,4.1,15,4.1,15,4.8,16
2016/3/15 2:43,3.9,16,4.1,15,4.3,1
2016/3/15 2:44,3.6,16,3.9,15,3.9,16
2016/3/15 2:45,3.3,16,3.6,15,5.8,16
2016/3/15 2:46,2.9,16,3.3,15,4.3,16
2016/3/15 2:47,2.7,16,2.9,15,5,16
2016/3/15 2:48,2.8,16,2.8,15,5.8,15
2016/3/15 2:49,2.8,16,2.8,15,6.8,15
2016/3/15 2:50,2.8,16,2.9,15,8.1,15
2016/3/15 2:51,2.9,16,2.9,15,5.8,11
2016/3/15 2:52,2.8,16,2.9,15,3.7,11
2016/3/15 2:53,2.7,16,2.8,16,4.3,1
2016/3/15 2:54,2.8,15,2.8,16,5.2,15
2016/3/15 2:55,2.7,15,2.9,16,3.5,15
2016/3/15 2:56,2.6,15,2.7,16,2.9,1
2016/3/15 2:57,2.7,15,2.7,16,3.7,16
2016/3/15 2:58,2.6,15,2.7,16,4.9,1
2016/3/15 2:59,2.8,15,2.8,16,8.7,14
2016/3/15 3:00,3,15,3,15,9.3,15
2016/3/15 3:01,3.3,16,3.3,16,7.9,16
2016/3/15 3:02,3.6,16,3.6,16,9.1,16
2016/3/15 3:03,3.9,16,3.9,16,7.8,16
2016/3/15 3:04,4,16,4,16,9,2
2016/3/15 3:05,4.3,16,4.3,16,7.7,15
2016/3/15 3:06,4.5,16,4.5,16,5.6,15
2016/3/15 3:07,4.7,16,4.7,16,7,15
2016/3/15 3:08,4.8,16,4.8,16,6.7,16
2016/3/15 3:09,4.8,16,4.8,16,7.9,16
2016/3/15 3:10,4.7,16,4.9,16,9.4,15
2016/3/15 3:11,4.5,16,4.6,16,7.5,2
2016/3/15 3:12,4.4,16,4.6,16,9.8,15
2016/3/15 3:13,4.5,16,4.5,16,9.2,15
2016/3/15 3:14,4.4,16,4.6,16,7.4,1
2016/3/15 3:15,4.4,16,4.4,16,8.7,16
2016/3/15 3:16,4.6,16,4.6,16,8.4,14
2016/3/15 3:17,4.6,16,4.6,16,7.4,15
2016/3/15 3:18,4.6,16,4.6,16,7.5,16
2016/3/15 3:19,4.6,16,4.6,16,9.1,14
2016/3/15 3:20,4.6,16,4.6,16,6.5,15
2016/3/15 3:21,4.7,16,4.7,16,8.5,16
2016/3/15 3:22,4.9,16,5,16,8.6,1
2016/3/15 3:23,4.8,16,5,16,7.9,16
2016/3/15 3:24,5,16,5,16,7.8,16
2016/3/15 3:25,4.9,16,5.1,16,6.7,15
2016/3/15 3:26,4.8,16,5,16,6.5,1
2016/3/15 3:27,4.8,16,4.8,16,6.9,1
2016/3/15 3:28,4.7,16,4.8,16,7.1,1
2016/3/15 3:29,4.4,16,4.7,16,3.7,16
2016/3/15 3:30,4.4,16,4.4,16,5.7,1
2016/3/15 3:31,4.4,16,4.4,16,8.2,15
2016/3/15 3:32,4.2,16,4.4,16,9,1
2016/3/15 3:33,3.9,16,4.1,16,3.3,1
2016/3/15 3:34,3.5,16,3.9,16,3,1
2016/3/15 3:35,3.3,16,3.4,16,3,15
2016/3/15 3:36,3.3,16,3.3,16,6.2,16
2016/3/15 3:37,3.2,16,3.3,16,5.4,16
2016/3/15 3:38,3.3,16,3.3,16,6.8,16
2016/3/15 3:39,3.4,16,3.4,16,4.4,15
2016/3/15 3:40,3.1,16,3.3,16,3.6,15
2016/3/15 3:41,2.9,16,3.1,16,5,1
2016/3/15 3:42,2.8,16,2.8,16,4.8,15
2016/3/15 3:43,3,16,3,16,6.5,15
2016/3/15 3:44,3.3,16,3.3,16,6.2,16
2016/3/15 3:45,3.6,16,3.6,16,6.9,15
2016/3/15 3:46,3.5,16,3.6,16,5.5,15
2016/3/15 3:47,3.4,16,3.5,16,4.1,14
2016/3/15 3:48,3.1,15,3.4,16,3.5,15
2016/3/15 3:49,3,16,3.1,16,4.4,15
2016/3/15 3:50,3.1,16,3.1,16,4.9,1
2016/3/15 3:51,3,16,3.2,16,3.6,1
2016/3/15 3:52,3,16,3.1,16,3.7,15
2016/3/15 3:53,2.9,16,3,16,5,15
2016/3/15 3:54,2.8,16,2.9,16,4.7,16
2016/3/15 3:55,2.7,16,2.8,16,4.8,16
2016/3/15 3:56,2.6,16,2.6,16,3.9,16
2016/3/15 3:57,2.8,16,2.8,16,6.8,16
2016/3/15 3:58,3,16,3,16,6.4,15
2016/3/15 3:59,3.1,16,3.1,16,7.6,16
2016/3/15 4:00,3.3,16,3.3,16,8.1,16
2016/3/15 4:01,3.5,16,3.5,16,9.8,16
2016/3/15 4:02,3.8,16,3.8,16,7.7,16
2016/3/15 4:03,3.9,16,3.9,16,9.2,2
2016/3/15 4:04,3.8,16,3.9,16,6.5,1
2016/3/15 4:05,3.8,16,3.8,16,5.5,14
2016/3/15 4:06,3.9,16,3.9,16,5.2,3
2016/3/15 4:07,3.9,16,4,16,7.2,2
2016/3/15 4:08,3.8,16,3.9,16,5.2,15
2016/3/15 4:09,3.9,16,3.9,16,6.7,1
2016/3/15 4:10,3.8,16,3.9,16,6.5,15
2016/3/15 4:11,3.7,16,3.8,16,4.4,16
2016/3/15 4:12,3.5,16,3.6,16,6.7,1
2016/3/15 4:13,3.8,16,3.8,16,10.3,1
2016/3/15 4:14,4,16,4,16,7.8,1
2016/3/15 4:15,4,16,4.1,16,4.7,15
2016/3/15 4:16,4,16,4.1,16,5.5,16
2016/3/15 4:17,3.9,16,4,16,5.4,1
2016/3/15 4:18,4,16,4,16,4.9,14
2016/3/15 4:19,3.9,16,4,16,6.4,14
2016/3/15 4:20,3.6,16,3.8,16,2,12
2016/3/15 4:21,3.5,16,3.5,16,5.8,16
2016/3/15 4:22,3.5,16,3.6,16,6.1,1
2016/3/15 4:23,3.4,16,3.5,16,8.7,1
2016/3/15 4:24,3.3,16,3.4,16,7.9,15
2016/3/15 4:25,3.4,16,3.4,16,6.8,15
2016/3/15 4:26,3.6,16,3.6,16,8.2,1
2016/3/15 4:27,3.5,16,3.6,16,5.6,1
2016/3/15 4:28,3.7,16,3.7,16,7.6,16
2016/3/15 4:29,3.8,16,3.8,16,7.6,15
2016/3/15 4:30,3.9,16,3.9,16,6.3,12
2016/3/15 4:31,4,16,4,16,5.4,11
2016/3/15 4:32,3.8,15,3.9,16,2.7,13
2016/3/15 4:33,3.3,15,3.7,16,3.5,7
2016/3/15 4:34,3.2,15,3.3,16,4.4,15
2016/3/15 4:35,3,15,3.2,16,3.6,1
2016/3/15 4:36,2.7,15,3,16,4.5,1
2016/3/15 4:37,2.8,15,2.8,16,5.4,1
2016/3/15 4:38,2.6,15,2.7,16,7.1,16
2016/3/15 4:39,2.7,15,2.7,16,9.2,16
2016/3/15 4:40,2.9,16,2.9,16,10.2,16
2016/3/15 4:41,3.3,16,3.3,16,9.1,15
2016/3/15 4:42,3.4,16,3.4,15,7.9,16
2016/3/15 4:43,3.7,16,3.7,16,7.9,2
2016/3/15 4:44,3.8,16,3.8,16,4.3,15
2016/3/15 4:45,3.9,16,3.9,16,5.7,15
2016/3/15 4:46,4,16,4,16,5.8,15
2016/3/15 4:47,4.2,16,4.2,16,7.9,1
2016/3/15 4:48,4.4,16,4.4,16,6.9,1
2016/3/15 4:49,4.1,16,4.4,16,4.7,16
2016/3/15 4:50,3.7,16,4,16,3.1,1
2016/3/15 4:51,3.4,16,3.7,16,4.8,1
2016/3/15 4:52,3.4,16,3.4,16,4.5,16
2016/3/15 4:53,3.3,16,3.4,16,6.3,16
2016/3/15 4:54,3.5,16,3.5,16,6,16
2016/3/15 4:55,3.5,16,3.5,16,6.7,15
2016/3/15 4:56,3.4,16,3.5,16,5.6,16
2016/3/15 4:57,3.2,16,3.3,16,5.2,16
2016/3/15 4:58,3.1,16,3.2,16,6,16
2016/3/15 4:59,3.1,16,3.1,16,5,16
2016/3/15 5:00,3.2,16,3.3,16,3.3,16
2016/3/15 5:01,3,16,3.2,16,1.6,14
2016/3/15 5:02,2.8,16,3,16,2.4,1
2016/3/15 5:03,2.5,16,2.8,16,2.7,16
2016/3/15 5:04,2.4,16,2.5,16,5.7,16
2016/3/15 5:05,2.3,16,2.4,16,3.3,16
2016/3/15 5:06,2.4,16,2.4,16,4.8,16
2016/3/15 5:07,2.6,16,2.6,16,7.7,1
2016/3/15 5:08,2.6,16,2.6,16,4.4,1
2016/3/15 5:09,2.5,16,2.5,16,4.4,16
2016/3/15 5:10,2.5,16,2.5,16,2.9,15
2016/3/15 5:11,2.4,1,2.5,16,2.6,2
2016/3/15 5:12,2.6,16,2.6,16,5.6,14
2016/3/15 5:13,2.9,16,2.9,16,7.1,15
2016/3/15 5:14,2.9,16,2.9,16,6.3,14
2016/3/15 5:15,2.9,16,2.9,16,5,1
2016/3/15 5:16,2.9,16,2.9,16,7.2,2
2016/3/15 5:17,2.7,16,2.9,16,5.6,15
2016/3/15 5:18,2.9,16,2.9,16,9.3,1
2016/3/15 5:19,3.1,16,3.1,16,8.3,16
2016/3/15 5:20,3.2,16,3.2,16,3.2,16
2016/3/15 5:21,3.3,16,3.3,16,4.4,16
2016/3/15 5:22,3.3,16,3.4,16,5,16
2016/3/15 5:23,3.1,16,3.3,16,4.7,1
2016/3/15 5:24,3.1,16,3.1,16,6.3,15
2016/3/15 5:25,3.2,16,3.2,16,6.2,16
2016/3/15 5:26,3.1,16,3.2,16,3.1,15
2016/3/15 5:27,2.9,16,3.1,16,1.8,13
2016/3/15 5:28,2.6,16,2.9,16,3.7,12
2016/3/15 5:29,2.6,15,2.6,16,7.5,13
2016/3/15 5:30,2.5,15,2.6,16,4.4,16
2016/3/15 5:31,2.5,15,2.6,16,3.9,16
2016/3/15 5:32,2.6,15,2.6,16,5.7,15
2016/3/15 5:33,2.7,15,2.8,16,4.4,2
2016/3/15 5:34,2.6,15,2.7,16,2.1,2
2016/3/15 5:35,2.4,15,2.5,16,4.3,2
2016/3/15 5:36,2.5,16,2.5,16,4.2,1
2016/3/15 5:37,2.7,16,2.7,16,3.9,2
2016/3/15 5:38,2.8,16,2.8,15,6.2,1
2016/3/15 5:39,2.8,1,2.8,15,6.2,1
2016/3/15 5:40,3.1,16,3.1,16,6.8,16
2016/3/15 5:41,3.2,16,3.2,16,5.7,15
2016/3/15 5:42,3,16,3.2,16,3.2,16
2016/3/15 5:43,2.9,16,3,16,3.2,16
2016/3/15 5:44,3,16,3,16,3.9,15
2016/3/15 5:45,3,16,3.1,16,4.7,16
2016/3/15 5:46,2.9,16,3,16,4.7,2
2016/3/15 5:47,2.9,16,2.9,16,4.4,16
2016/3/15 5:48,3,16,3,16,8.6,1
2016/3/15 5:49,2.9,16,3,16,4.9,15
2016/3/15 5:50,2.6,16,2.9,16,4.8,15
2016/3/15 5:51,2.5,16,2.6,16,5.5,1
2016/3/15 5:52,2.8,16,2.8,16,9,16
2016/3/15 5:53,3.1,16,3.1,16,7.5,15
2016/3/15 5:54,3.2,16,3.2,16,7.1,16
2016/3/15 5:55,3.5,16,3.5,16,8.1,1
2016/3/15 5:56,3.6,16,3.6,16,4.3,16
2016/3/15 5:57,3.6,16,3.6,16,4.2,16
2016/3/15 5:58,3.6,16,3.6,16,6.4,16
2016/3/15 5:59,3.6,16,3.7,16,5.8,16
2016/3/15 6:00,3.8,16,3.8,16,5.2,16
2016/3/15 6:01,3.7,16,3.8,16,4.2,1
2016/3/15 6:02,3.4,1,3.7,16,3.9,16
2016/3/15 6:03,3.4,1,3.4,16,9,16
2016/3/15 6:04,3.5,16,3.5,16,9.2,16
2016/3/15 6:05,3.5,16,3.5,16,8.6,15
2016/3/15 6:06,3.7,16,3.7,16,7,14
2016/3/15 6:07,3.8,16,3.8,16,8.3,15
2016/3/15 6:08,3.7,16,3.8,16,7.8,15
2016/3/15 6:09,4.1,16,4.1,16,11,16
2016/3/15 6:10,4.1,15,4.2,16,9,16
2016/3/15 6:11,4.2,15,4.2,16,6.7,1
2016/3/15 6:12,4.7,15,4.7,15,8.9,1
2016/3/15 6:13,4.7,15,4.8,15,8.6,1
2016/3/15 6:14,4.4,15,4.7,15,5.7,16
2016/3/15 6:15,4.3,15,4.4,15,8.2,15
2016/3/15 6:16,4.2,15,4.4,15,4.8,16
2016/3/15 6:17,4.1,15,4.2,15,4.9,16
2016/3/15 6:18,4.1,15,4.2,15,7.8,16
2016/3/15 6:19,3.8,15,4.1,15,6.2,4
2016/3/15 6:20,3.8,15,3.8,15,7.6,13
2016/3/15 6:21,3.9,15,3.9,15,9.2,16
2016/3/15 6:22,3.7,15,4,15,11.7,16
2016/3/15 6:23,3.8,15,3.8,15,10.2,15
2016/3/15 6:24,4.1,16,4.1,15,9.2,16
2016/3/15 6:25,4.2,16,4.2,15,9,15
2016/3/15 6:26,4.4,16,4.4,16,8.9,16
2016/3/15 6:27,4.7,16,4.7,16,8.2,16
2016/3/15 6:28,4.9,16,4.9,16,9.7,2
2016/3/15 6:29,5.1,16,5.1,16,6.2,16
2016/3/15 6:30,4.9,16,5.1,16,3.3,16
2016/3/15 6:31,4.8,16,4.9,16,5.6,16
2016/3/15 6:32,4.7,16,4.8,16,7.8,16
2016/3/15 6:33,4.5,16,4.7,16,5,15
2016/3/15 6:34,4.2,16,4.5,16,3.9,15
2016/3/15 6:35,4,16,4.1,16,9.2,15
2016/3/15 6:36,3.8,16,4,16,5.8,16
2016/3/15 6:37,3.7,16,3.8,16,7,13
2016/3/15 6:38,3.3,15,3.6,16,5.2,13
2016/3/15 6:39,3.3,15,3.3,16,9.4,15
2016/3/15 6:40,3.5,15,3.5,16,8.3,15
2016/3/15 6:41,3.4,15,3.5,16,4.4,16
2016/3/15 6:42,3.6,15,3.6,16,13.4,15
2016/3/15 6:43,3.8,15,3.8,16,10.3,16
2016/3/15 6:44,4.3,15,4.3,15,9.4,16
2016/3/15 6:45,4.1,15,4.3,15,5.1,15
2016/3/15 6:46,4.3,15,4.3,15,7.7,16
2016/3/15 6:47,4.4,16,4.4,15,9.8,15
2016/3/15 6:48,4.6,16,4.6,16,9.4,15
2016/3/15 6:49,4.5,16,4.6,16,6.5,16
2016/3/15 6:50,4.6,16,4.6,16,8.7,16
2016/3/15 6:51,4.9,16,4.9,16,8.7,15
2016/3/15 6:52,5,16,5,15,11.8,14
2016/3/15 6:53,4.7,16,4.9,15,6.2,16
2016/3/15 6:54,4.8,16,4.8,15,15.6,15
2016/3/15 6:55,5.6,15,5.6,15,16.1,15
2016/3/15 6:56,5.7,16,5.7,15,9.2,1
2016/3/15 6:57,5.8,16,5.8,16,12.8,16
2016/3/15 6:58,6.1,15,6.1,15,11.7,13
2016/3/15 6:59,6.2,15,6.3,15,10.5,13
2016/3/15 7:00,6.2,15,6.2,15,7.5,16
2016/3/15 7:01,6.3,15,6.3,15,10,16
2016/3/15 7:02,5.8,15,6.2,15,3.8,14
2016/3/15 7:03,5.9,15,5.9,15,6.4,16
2016/3/15 7:04,5.7,15,5.8,15,12.3,15
2016/3/15 7:05,5.6,15,5.7,15,13.9,16
2016/3/15 7:06,5.9,15,5.9,15,13,16
2016/3/15 7:07,5.6,15,5.9,15,9,15
2016/3/15 7:08,5.3,15,5.6,15,9.1,15
2016/3/15 7:09,5.3,15,5.3,15,6.5,1
2016/3/15 7:10,5,15,5.3,15,5.6,14
2016/3/15 7:11,4.9,15,5,15,12.5,1
2016/3/15 7:12,5.6,15,5.6,15,13.9,15
2016/3/15 7:13,5.8,15,5.8,15,10.5,15
2016/3/15 7:14,5.8,15,5.8,15,9.1,1
2016/3/15 7:15,5.8,15,5.8,15,15,15
2016/3/15 7:16,5.6,15,5.8,15,12.4,15
2016/3/15 7:17,5.6,16,5.6,15,6.8,15
2016/3/15 7:18,5.7,15,5.7,15,11.8,16
2016/3/15 7:19,6,15,6,15,12.1,15
2016/3/15 7:20,6.2,15,6.2,15,11.6,15
2016/3/15 7:21,6.4,15,6.4,15,14,14
2016/3/15 7:22,6.3,15,6.5,15,14.2,16
2016/3/15 7:23,6,16,6.2,15,7,16
2016/3/15 7:24,5.9,15,6,15,7.4,15
2016/3/15 7:25,5.4,15,5.8,15,7.5,1
2016/3/15 7:26,5.3,15,5.4,15,8.2,15
2016/3/15 7:27,5.7,15,5.7,15,14.5,15
2016/3/15 7:28,5.6,15,5.8,15,9.7,16
2016/3/15 7:29,5.7,15,5.7,15,14,15
2016/3/15 7:30,6,15,6.1,15,14,15
2016/3/15 7:31,5.9,15,6,15,10.6,16
2016/3/15 7:32,5.4,15,5.8,15,7.5,1
2016/3/15 7:33,5.4,15,5.5,15,5.2,15
2016/3/15 7:34,5.5,15,5.5,15,14.7,15
2016/3/15 7:35,5.8,15,5.9,15,13.4,15
2016/3/15 7:36,5.8,15,5.8,15,10.8,15
2016/3/15 7:37,5.5,15,5.8,15,8.7,16
2016/3/15 7:38,5.3,15,5.4,15,8.1,13
2016/3/15 7:39,5,15,5.4,15,10.2,15
2016/3/15 7:40,4.8,15,5,15,8.6,15
2016/3/15 7:41,4.7,15,4.9,15,8.7,16
2016/3/15 7:42,4.9,15,4.9,15,7.6,12
2016/3/15 7:43,5.2,15,5.2,15,12.8,14
2016/3/15 7:44,5.6,15,5.7,15,16.3,16
2016/3/15 7:45,5.4,15,5.6,15,10.1,15
2016/3/15 7:46,5.1,15,5.4,15,4.4,16
2016/3/15 7:47,5.2,15,5.2,15,8.7,16
2016/3/15 7:48,5.6,16,5.6,15,13.1,15
2016/3/15 7:49,5.6,16,5.6,15,8.9,15
2016/3/15 7:50,5.9,16,5.9,15,14.4,15
2016/3/15 7:51,5.7,15,5.9,15,9.3,2
2016/3/15 7:52,5.7,15,5.8,15,6.8,15
2016/3/15 7:53,5.3,16,5.7,15,4.8,16
2016/3/15 7:54,4.9,15,5.3,15,10.8,14
2016/3/15 7:55,4.8,15,5,15,9.9,16
2016/3/15 7:56,5,15,5,15,9.4,13
2016/3/15 7:57,5.5,15,5.5,15,15.9,15
2016/3/15 7:58,5.4,15,5.4,15,11.3,16
2016/3/15 7:59,5.6,15,5.6,15,11.5,15
2016/3/15 8:00,5.5,15,5.7,16,9,15
2016/3/15 8:01,5.4,15,5.5,15,6.1,13
2016/3/15 8:02,5.5,15,5.6,15,9.1,15
2016/3/15 8:03,6,15,6,15,11.8,16
2016/3/15 8:04,6.1,15,6.2,15,11.9,14
2016/3/15 8:05,6.2,15,6.2,15,9.1,15
2016/3/15 8:06,6.4,15,6.4,15,9.5,1
2016/3/15 8:07,5.9,15,6.4,15,8.7,16
2016/3/15 8:08,5.8,15,5.9,15,11.4,14
2016/3/15 8:09,5.7,15,5.7,15,10.8,15
2016/3/15 8:10,5.7,15,5.7,15,11.5,16
2016/3/15 8:11,6.1,15,6.1,15,13.4,16
2016/3/15 8:12,6,15,6.2,15,10.5,15
2016/3/15 8:13,5.7,15,6,15,8.3,16
2016/3/15 8:14,5.7,15,5.7,15,12.6,16
2016/3/15 8:15,5.6,15,5.7,15,7.4,16
2016/3/15 8:16,5.6,15,5.7,15,10.1,15
2016/3/15 8:17,5.6,15,5.7,15,10.6,15
2016/3/15 8:18,5.4,15,5.6,15,7.8,15
2016/3/15 8:19,5.8,15,5.8,15,20.2,15
2016/3/15 8:20,5.9,15,6,15,17.5,15
2016/3/15 8:21,5.9,15,6,15,10.6,1
2016/3/15 8:22,5.7,15,5.9,15,8.6,1
2016/3/15 8:23,5.7,15,5.8,15,6.1,16
2016/3/15 8:24,5.5,15,5.7,15,5.7,15
2016/3/15 8:25,5.6,15,5.6,15,11.5,16
2016/3/15 8:26,5.5,15,5.6,15,9.8,14
2016/3/15 8:27,5.8,15,5.8,15,13.2,15
2016/3/15 8:28,5.9,15,6,15,10.5,16
2016/3/15 8:29,5.3,16,6,15,5.8,14
2016/3/15 8:30,4.9,16,5.2,15,6.9,4
2016/3/15 8:31,4.9,15,5,15,13,14
2016/3/15 8:32,5.2,15,5.2,15,10.3,15
2016/3/15 8:33,5.5,15,5.5,15,12.2,15
2016/3/15 8:34,5.6,15,5.6,15,8.5,16
2016/3/15 8:35,5.5,15,5.6,15,8.2,15
2016/3/15 8:36,5.9,16,5.9,15,16.3,16
2016/3/15 8:37,5.4,16,5.9,15,12.8,16
2016/3/15 8:38,5.2,16,5.4,15,5.5,16
2016/3/15 8:39,5.3,15,5.3,16,9.1,15
2016/3/15 8:40,5.4,15,5.4,16,8.6,16
2016/3/15 8:41,5,15,5.4,16,5.5,14
2016/3/15 8:42,4.8,16,5,16,13.5,16
2016/3/15 8:43,4.7,16,4.8,16,12.4,16
2016/3/15 8:44,4.8,16,4.8,16,11.7,15
2016/3/15 8:45,4.8,16,5,16,11,15
2016/3/15 8:46,4.5,16,4.9,16,10.8,16
2016/3/15 8:47,4.5,16,4.5,16,7.6,15
2016/3/15 8:48,4.8,16,4.8,15,10.1,15
2016/3/15 8:49,5,16,5,15,11.5,15
2016/3/15 8:50,5,16,5.1,15,9.3,16
2016/3/15 8:51,5.1,16,5.1,16,8.5,16
2016/3/15 8:52,5.1,16,5.3,16,9.2,16
2016/3/15 8:53,5.3,16,5.3,16,15,16
2016/3/15 8:54,5.2,15,5.3,16,7.7,13
2016/3/15 8:55,5.3,15,5.3,16,8.9,15
2016/3/15 8:56,5.4,15,5.4,15,12.4,15
2016/3/15 8:57,5.7,15,5.7,15,13,15
2016/3/15 8:58,5.7,15,5.7,15,11.6,15
2016/3/15 8:59,5.6,15,5.8,15,12.1,16
2016/3/15 9:00,5.7,15,5.7,15,9.7,16
2016/3/15 9:01,6,15,6,15,14.8,14
2016/3/15 9:02,6.1,15,6.2,15,14.1,15
2016/3/15 9:03,5.8,15,6.2,15,9.1,16
2016/3/15 9:04,6.1,15,6.1,15,13.4,16
2016/3/15 9:05,6,15,6.1,15,6.2,15
2016/3/15 9:06,5.9,16,6,15,10.1,15
2016/3/15 9:07,6,16,6,15,12.1,15
2016/3/15 9:08,5.9,15,6.1,15,10.7,16
2016/3/15 9:09,5.5,16,5.8,15,7.6,15
2016/3/15 9:10,5.3,15,5.5,15,7,15
2016/3/15 9:11,5.1,15,5.3,15,9.9,16
2016/3/15 9:12,5.1,15,5.1,15,7.6,16
2016/3/15 9:13,5,15,5.1,15,7.9,15
2016/3/15 9:14,4.9,16,5.1,15,15.7,15
2016/3/15 9:15,5.1,16,5.1,16,10.1,15
2016/3/15 9:16,4.8,16,5.1,16,4.3,16
2016/3/15 9:17,4.2,16,4.7,16,5.4,1
2016/3/15 9:18,4.3,15,4.3,15,9.3,16
2016/3/15 9:19,4.5,15,4.5,16,7.1,14
2016/3/15 9:20,4.8,15,4.8,15,9.1,15
2016/3/15 9:21,4.9,15,5,15,10.7,1
2016/3/15 9:22,4.8,15,4.9,15,11,14
2016/3/15 9:23,5.1,15,5.1,15,10.2,15
2016/3/15 9:24,4.8,15,5.1,16,9.3,15
2016/3/15 9:25,4.7,15,4.7,15,10.8,16
2016/3/15 9:26,5.2,15,5.2,15,9.9,15
2016/3/15 9:27,5.4,15,5.4,15,8.9,16
2016/3/15 9:28,4.9,15,5.3,15,4.5,1
2016/3/15 9:29,5,16,5,15,9,16
2016/3/15 9:30,5.1,16,5.1,15,10.9,16
2016/3/15 9:31,4.8,16,5.1,15,6.9,16
2016/3/15 9:32,5,16,5,15,10.2,16
2016/3/15 9:33,4.8,16,5,15,8.3,15
2016/3/15 9:34,4.8,16,4.8,15,6.4,14
2016/3/15 9:35,4.6,15,4.8,15,3.6,14
2016/3/15 9:36,4.4,15,4.5,15,9.9,16
2016/3/15 9:37,4.5,15,4.5,15,7.9,14
2016/3/15 9:38,4.5,15,4.5,16,5.7,1
2016/3/15 9:39,4.6,15,4.6,16,11.6,14
2016/3/15 9:40,4.5,15,4.6,16,8.9,15
2016/3/15 9:41,4.6,15,4.6,16,10.9,16
2016/3/15 9:42,4.4,15,4.6,16,8.9,15
2016/3/15 9:43,4.4,15,4.4,16,8.1,15
2016/3/15 9:44,4.3,15,4.4,16,8.1,16
2016/3/15 9:45,4.3,15,4.4,15,3.2,16
2016/3/15 9:46,4,15,4.3,15,3.6,2
2016/3/15 9:47,3.7,15,4,15,5.5,15
2016/3/15 9:48,3.7,15,3.8,15,4.4,12
2016/3/15 9:49,3.3,15,3.6,15,6.1,1
2016/3/15 9:50,3.3,15,3.3,15,11.6,1
2016/3/15 9:51,3.7,15,3.7,15,13.2,14
2016/3/15 9:52,3.8,16,3.8,15,11.5,15
2016/3/15 9:53,3.6,15,3.8,15,7.6,15
2016/3/15 9:54,3.4,15,3.6,15,7.7,15
2016/3/15 9:55,3.8,15,3.8,15,9,14
2016/3/15 9:56,3.9,15,3.9,15,8.2,16
2016/3/15 9:57,3.8,15,3.9,15,2.7,13
2016/3/15 9:58,3.8,15,3.8,15,3.1,14
2016/3/15 9:59,3.9,15,3.9,15,6.5,16
2016/3/15 10:00,3.6,15,4,15,8.1,16
2016/3/15 10:01,3.3,15,3.6,15,8.7,16
2016/3/15 10:02,3.3,15,3.3,15,8.2,15
2016/3/15 10:03,3.4,15,3.4,15,6,14
2016/3/15 10:04,3.3,15,3.4,15,2.9,9
2016/3/15 10:05,3,15,3.2,15,5.2,16
2016/3/15 10:06,3.3,15,3.3,15,9,15
2016/3/15 10:07,3.4,14,3.4,15,6.1,15
2016/3/15 10:08,3.4,14,3.4,15,2.2,10
2016/3/15 10:09,3.3,14,3.4,15,3.9,10
2016/3/15 10:10,3.2,14,3.3,15,4.8,13
2016/3/15 10:11,3,13,3.2,15,3.3,13
2016/3/15 10:12,2.9,13,3,15,7,16
2016/3/15 10:13,3.1,14,3.1,15,7.4,16
2016/3/15 10:14,3.2,14,3.2,15,5.2,2
2016/3/15 10:15,3.1,14,3.3,15,4.8,3
2016/3/15 10:16,3,14,3.1,15,5.5,1
2016/3/15 10:17,3.1,15,3.1,14,5.2,1
2016/3/15 10:18,3.1,15,3.1,14,4.7,10
2016/3/15 10:19,3.4,15,3.4,15,10.9,15
2016/3/15 10:20,3.6,15,3.6,15,13.4,15
2016/3/15 10:21,3.7,16,3.7,16,4.8,16
2016/3/15 10:22,3.5,16,3.7,16,4.5,15
2016/3/15 10:23,3.2,16,3.5,16,4.9,1
2016/3/15 10:24,3,15,3.2,16,3.2,12
2016/3/15 10:25,3.2,15,3.2,16,8.1,13
2016/3/15 10:26,3,15,3.2,16,3.1,5
2016/3/15 10:27,2.8,14,2.9,16,3.3,12
2016/3/15 10:28,2.9,14,2.9,16,4.2,12
2016/3/15 10:29,2.6,14,2.9,16,4.7,15
2016/3/15 10:30,2.3,14,2.6,16,6.4,1
2016/3/15 10:31,2.3,14,2.3,16,6.1,14
2016/3/15 10:32,2.4,14,2.4,16,5.1,16
2016/3/15 10:33,2.7,14,2.7,16,8.6,16
2016/3/15 10:34,3.1,14,3.1,15,7.4,15
2016/3/15 10:35,3,14,3.1,15,4.4,14
2016/3/15 10:36,3.1,14,3.1,14,6.4,16
2016/3/15 10:37,3.5,14,3.5,14,9.5,15
2016/3/15 10:38,3.8,15,3.8,14,6.9,15
2016/3/15 10:39,3.7,15,3.8,14,3.8,14
2016/3/15 10:40,3.5,15,3.7,14,3.2,11
2016/3/15 10:41,3.4,15,3.5,14,3.2,1
2016/3/15 10:42,3.2,15,3.3,14,4.8,12
2016/3/15 10:43,3,14,3.2,14,5.2,12
2016/3/15 10:44,2.7,14,3,14,3.8,12
2016/3/15 10:45,2.5,14,2.6,14,3.9,16
2016/3/15 10:46,2.6,14,2.6,14,6,16
2016/3/15 10:47,2.4,14,2.6,14,5.5,16
2016/3/15 10:48,2.4,14,2.4,15,7.2,14
2016/3/15 10:49,2.6,14,2.6,15,6.5,15
2016/3/15 10:50,2.9,15,2.9,15,8.2,16
2016/3/15 10:51,3.3,15,3.3,15,8.1,15
2016/3/15 10:52,3.7,15,3.7,15,8.5,15
2016/3/15 10:53,3.9,15,3.9,15,7.9,1